Hourly Weather Kladovicy

Today, 29 July, Thursday

Time Temperature Precipitation Wind Pressure Humidity
00:00 +19°C° 0 mm 1 mps 746 mmHg 94%
01:00 +19°C° 0 mm 1 mps 746 mmHg 94%
02:00 +19°C° 0 mm 1 mps 746 mmHg 95%
03:00 +18°C° 0 mm 2 mps 746 mmHg 94%
04:00 +18°C° 0 mm 2 mps 746 mmHg 94%
05:00 +18°C° 0 mm 2 mps 745 mmHg 94%
06:00 +19°C° 0 mm 2 mps 745 mmHg 88%
07:00 +21°C° 0 mm 2 mps 745 mmHg 82%
08:00 +23°C° 0 mm 2 mps 745 mmHg 77%
09:00 +24°C° 0 mm 2 mps 745 mmHg 70%
10:00 +25°C° 0 mm 2 mps 745 mmHg 64%
11:00 +26°C° 0 mm 2 mps 745 mmHg 57%
12:00 +26°C° 0 mm 3 mps 745 mmHg 57%
13:00 +27°C° 0 mm 3 mps 745 mmHg 57%
14:00 +27°C° 0 mm 3 mps 744 mmHg 57%
15:00 +27°C° 0.1 mm 3 mps 744 mmHg 59%
16:00 +27°C° 0.1 mm 3 mps 744 mmHg 60%
17:00 +27°C° 0.1 mm 3 mps 744 mmHg 61%
18:00 +25°C° 0.3 mm 3 mps 744 mmHg 71%
19:00 +22°C° 0.3 mm 3 mps 744 mmHg 81%
20:00 +20°C° 0.3 mm 2 mps 744 mmHg 91%
21:00 +19°C° 0.1 mm 2 mps 744 mmHg 93%
22:00 +18°C° 0.1 mm 2 mps 743 mmHg 95%
23:00 +18°C° 0.1 mm 2 mps 743 mmHg 97%

Tomorrow, 30 July, Friday

Time Temperature Precipitation Wind Pressure Humidity
00:00 +17°C° 0 mm 2 mps 743 mmHg 97%
01:00 +17°C° 0 mm 2 mps 743 mmHg 97%
02:00 +17°C° 0 mm 2 mps 743 mmHg 97%
03:00 +17°C° 0 mm 2 mps 744 mmHg 96%
04:00 +16°C° 0 mm 2 mps 744 mmHg 96%
05:00 +16°C° 0 mm 2 mps 744 mmHg 96%
06:00 +17°C° 0 mm 2 mps 744 mmHg 89%
07:00 +18°C° 0 mm 2 mps 744 mmHg 81%
08:00 +20°C° 0 mm 2 mps 744 mmHg 74%
09:00 +20°C° 0 mm 3 mps 744 mmHg 68%
10:00 +21°C° 0 mm 3 mps 744 mmHg 62%
11:00 +22°C° 0 mm 3 mps 744 mmHg 56%
12:00 +24°C° 0.2 mm 3 mps 743 mmHg 50%
13:00 +25°C° 0.2 mm 4 mps 743 mmHg 45%
14:00 +26°C° 0.2 mm 4 mps 743 mmHg 39%
15:00 +26°C° 0 mm 4 mps 742 mmHg 39%
16:00 +26°C° 0 mm 4 mps 742 mmHg 39%
17:00 +26°C° 0 mm 4 mps 742 mmHg 39%
18:00 +23°C° 0 mm 4 mps 742 mmHg 41%
19:00 +22°C° 0 mm 4 mps 742 mmHg 44%
20:00 +21°C° 0 mm 3 mps 742 mmHg 47%
21:00 +20°C° 0 mm 4 mps 741 mmHg 50%
22:00 +19°C° 0 mm 4 mps 741 mmHg 54%
23:00 +18°C° 0 mm 4 mps 741 mmHg 57%

Day after tomorrow, 31 July, Saturday

Time Temperature Precipitation Wind Pressure Humidity
00:00 +18°C° 0.1 mm 4 mps 741 mmHg 59%
01:00 +18°C° 0.1 mm 4 mps 741 mmHg 60%
02:00 +17°C° 0.1 mm 5 mps 740 mmHg 62%
03:00 +16°C° 0 mm 5 mps 740 mmHg 64%
04:00 +16°C° 0 mm 5 mps 740 mmHg 66%
05:00 +16°C° 0 mm 5 mps 740 mmHg 68%
06:00 +16°C° 0 mm 5 mps 741 mmHg 70%
07:00 +17°C° 0 mm 5 mps 741 mmHg 71%
08:00 +17°C° 0 mm 5 mps 741 mmHg 73%
09:00 +19°C° 0 mm 5 mps 741 mmHg 69%
10:00 +21°C° 0 mm 5 mps 742 mmHg 65%
11:00 +22°C° 0 mm 5 mps 742 mmHg 62%
12:00 +22°C° 0.2 mm 5 mps 742 mmHg 62%
13:00 +23°C° 0.2 mm 5 mps 742 mmHg 63%
14:00 +23°C° 0.2 mm 5 mps 743 mmHg 64%
15:00 +23°C° 0.1 mm 5 mps 743 mmHg 63%
16:00 +25°C° 0.1 mm 5 mps 743 mmHg 61%
17:00 +25°C° 0.1 mm 4 mps 743 mmHg 60%
18:00 +23°C° 0 mm 4 mps 744 mmHg 65%
19:00 +21°C° 0 mm 3 mps 744 mmHg 71%
20:00 +20°C° 0 mm 3 mps 744 mmHg 76%
21:00 +19°C° 0 mm 2 mps 744 mmHg 79%
22:00 +18°C° 0 mm 2 mps 744 mmHg 82%
23:00 +18°C° 0 mm 2 mps 744 mmHg 85%

1 August, Sunday

Time Temperature Precipitation Wind Pressure Humidity
00:00 +18°C° 0 mm 2 mps 744 mmHg 83%
01:00 +18°C° 0 mm 2 mps 744 mmHg 82%
02:00 +18°C° 0 mm 2 mps 744 mmHg 81%
03:00 +18°C° 0 mm 2 mps 743 mmHg 79%
04:00 +18°C° 0 mm 2 mps 743 mmHg 78%
05:00 +18°C° 0 mm 2 mps 743 mmHg 77%
06:00 +18°C° 0.2 mm 2 mps 743 mmHg 79%
07:00 +19°C° 0.2 mm 3 mps 743 mmHg 81%
08:00 +19°C° 0.2 mm 3 mps 743 mmHg 83%
09:00 +21°C° 0.2 mm 4 mps 743 mmHg 73%
10:00 +23°C° 0.2 mm 4 mps 743 mmHg 63%
11:00 +26°C° 0.2 mm 5 mps 743 mmHg 54%
12:00 +27°C° 0 mm 5 mps 743 mmHg 48%
13:00 +28°C° 0 mm 5 mps 743 mmHg 41%
14:00 +29°C° 0 mm 6 mps 743 mmHg 35%
15:00 +28°C° 0 mm 5 mps 743 mmHg 37%
16:00 +28°C° 0 mm 5 mps 743 mmHg 40%
17:00 +27°C° 0 mm 4 mps 743 mmHg 42%
18:00 +26°C° 0 mm 3 mps 743 mmHg 49%
19:00 +24°C° 0 mm 3 mps 744 mmHg 55%
20:00 +21°C° 0 mm 2 mps 744 mmHg 62%
21:00 +20°C° 0 mm 2 mps 744 mmHg 65%
22:00 +20°C° 0 mm 2 mps 744 mmHg 69%
23:00 +19°C° 0 mm 2 mps 744 mmHg 73%

2 August, Monday

Time Temperature Precipitation Wind Pressure Humidity
00:00 +18°C° 0 mm 2 mps 744 mmHg 75%
01:00 +17°C° 0 mm 2 mps 744 mmHg 78%
02:00 +17°C° 0 mm 2 mps 744 mmHg 80%
03:00 +17°C° 0 mm 2 mps 744 mmHg 80%
04:00 +17°C° 0 mm 2 mps 744 mmHg 80%
05:00 +17°C° 0 mm 2 mps 744 mmHg 80%
06:00 +18°C° 0 mm 2 mps 744 mmHg 75%
07:00 +18°C° 0 mm 2 mps 744 mmHg 71%
08:00 +19°C° 0 mm 2 mps 744 mmHg 67%
09:00 +20°C° 0 mm 2 mps 744 mmHg 63%
10:00 +22°C° 0 mm 1 mps 744 mmHg 60%
11:00 +22°C° 0 mm 1 mps 744 mmHg 57%
12:00 +21°C° 0.5 mm 1 mps 744 mmHg 68%
13:00 +20°C° 0.5 mm 1 mps 744 mmHg 79%
14:00 +18°C° 0.5 mm 1 mps 743 mmHg 89%
15:00 +18°C° 0.4 mm 1 mps 743 mmHg 91%
16:00 +18°C° 0.4 mm 1 mps 743 mmHg 93%
17:00 +18°C° 0.4 mm 1 mps 743 mmHg 95%
18:00 +16°C° 0.1 mm 1 mps 743 mmHg 95%
19:00 +16°C° 0.1 mm 1 mps 743 mmHg 95%
20:00 +16°C° 0.1 mm 1 mps 742 mmHg 95%
21:00 +16°C° 0.1 mm 1 mps 742 mmHg 95%
22:00 +16°C° 0.1 mm 1 mps 743 mmHg 95%
23:00 +15°C° 0.1 mm 1 mps 743 mmHg 95%

3 August, Tuesday

Time Temperature Precipitation Wind Pressure Humidity
00:00 +15°C° 0.1 mm 2 mps 743 mmHg 95%
01:00 +15°C° 0.1 mm 2 mps 742 mmHg 95%
02:00 +14°C° 0.1 mm 3 mps 742 mmHg 95%
03:00 +13°C° 0.9 mm 3 mps 743 mmHg 96%
04:00 +13°C° 0.9 mm 3 mps 743 mmHg 96%
05:00 +13°C° 0.9 mm 3 mps 743 mmHg 97%
06:00 +13°C° 1.6 mm 3 mps 743 mmHg 97%
07:00 +13°C° 1.6 mm 3 mps 744 mmHg 97%
08:00 +13°C° 1.6 mm 3 mps 744 mmHg 97%
09:00 +13°C° 0.3 mm 3 mps 745 mmHg 94%
10:00 +14°C° 0.3 mm 3 mps 745 mmHg 91%
11:00 +15°C° 0.3 mm 2 mps 745 mmHg 88%
12:00 +17°C° 0.3 mm 3 mps 746 mmHg 77%
13:00 +18°C° 0.3 mm 3 mps 746 mmHg 65%
14:00 +20°C° 0.3 mm 3 mps 746 mmHg 54%
15:00 +20°C° 0 mm 3 mps 746 mmHg 52%
16:00 +20°C° 0 mm 3 mps 746 mmHg 50%
17:00 +20°C° 0 mm 4 mps 747 mmHg 48%
18:00 +18°C° 0 mm 3 mps 747 mmHg 54%
19:00 +17°C° 0 mm 2 mps 747 mmHg 59%
20:00 +15°C° 0 mm 1 mps 748 mmHg 64%
21:00 +15°C° 0 mm 1 mps 748 mmHg 65%
22:00 +14°C° 0 mm 1 mps 749 mmHg 66%
23:00 +13°C° 0 mm 1 mps 749 mmHg 66%
Show more